Location: Unspecified
(0.0000°N, 0.0000°E)
Time: 18:01:25
(UTC+00:00)

Transit 4A - All Passes

Search period start: 18 June 2019 00:00
Search period end: 28 June 2019 00:00
Orbit: 862 x 983 km, 66.8° (Epoch: 17 June)

Date Brightness Start Highest point End Pass type
(mag) Time Alt. Az. Time Alt. Az. Time Alt. Az.
18 Jun - 06:27:49 10° SSE 06:31:54 19° ESE 06:36:04 10° ENE daylight
18 Jun - 08:12:30 10° SW 08:17:57 36° WNW 08:23:34 10° N daylight
18 Jun - 19:23:53 10° NNW 19:30:03 87° ENE 19:36:02 10° SSE visible
19 Jun - 06:35:53 10° S 06:41:12 32° ESE 06:46:37 10° NE daylight
19 Jun - 08:22:52 10° WSW 08:27:18 21° WNW 08:31:48 10° NNW daylight
19 Jun - 17:51:09 10° NE 17:53:08 12° ENE 17:55:07 10° E daylight
19 Jun - 19:33:22 10° NNW 19:39:20 54° WSW 19:45:08 10° S visible
20 Jun - 06:44:35 10° S 06:50:28 56° ESE 06:56:31 10° NNE daylight
20 Jun - 08:34:43 10° W 08:36:39 11° WNW 08:38:37 10° NW daylight
20 Jun - 17:58:01 10° NNE 18:02:31 21° ENE 18:06:54 10° ESE daylight
20 Jun - 19:43:17 10° NW 19:48:36 31° WSW 19:53:48 10° S visible
21 Jun - 06:53:42 10° SSW 06:59:45 86° WNW 07:05:59 10° NNE daylight
21 Jun - 18:06:17 10° N 18:11:51 36° ENE 18:17:15 10° SE daylight
21 Jun - 19:53:54 10° WNW 19:57:53 18° WSW 20:01:49 10° SSW visible
22 Jun - 05:20:22 10° SE 05:23:00 13° ESE 05:25:38 10° E visible
22 Jun - 07:03:13 10° SW 07:09:03 50° WNW 07:15:03 10° N daylight
22 Jun - 18:15:05 10° N 18:21:09 62° ENE 18:27:02 10° SSE visible
23 Jun - 05:27:39 10° SSE 05:32:19 23° ESE 05:37:03 10° ENE visible
23 Jun - 07:13:12 10° SW 07:18:22 29° WNW 07:23:40 10° N daylight
23 Jun - 18:24:19 10° NNW 18:30:26 77° WSW 18:36:23 10° SSE visible
24 Jun - 05:36:00 10° S 05:41:35 40° ESE 05:47:19 10° NE visible
24 Jun - 07:23:53 10° WSW 07:27:43 17° WNW 07:31:36 10° NNW daylight
24 Jun - 16:50:22 10° NE 16:53:34 15° ENE 16:56:44 10° E daylight
24 Jun - 18:33:57 10° NW 18:39:43 44° WSW 18:45:20 10° S visible
25 Jun - 05:44:51 10° SSW 05:50:52 69° ESE 05:57:03 10° NNE daylight
25 Jun - 16:57:58 10° NNE 17:02:56 26° ENE 17:07:45 10° SE daylight
25 Jun - 18:44:04 10° NW 18:48:59 26° WSW 18:53:49 10° SSW visible
26 Jun - 05:54:07 10° SSW 06:00:08 71° WNW 06:06:22 10° NNE daylight
26 Jun - 17:06:28 10° N 17:12:15 44° ENE 17:17:51 10° SE daylight
26 Jun - 18:55:07 10° WNW 18:58:17 15° WSW 19:01:25 10° SW visible
27 Jun - 04:19:46 10° SSE 04:23:24 16° ESE 04:27:05 10° ENE visible
27 Jun - 06:03:47 10° SW 06:09:27 41° WNW 06:15:17 10° N daylight
27 Jun - 17:15:26 10° NNW 17:21:33 76° ENE 17:27:28 10° SSE daylight
